Home > Weather > Fort Lauderdale > Past weeks

Flag for USA Weather for the Past 2 Weeks in Fort Lauderdale, Florida, USA

Now
79 °F

Partly sunny.


Feels Like: 79 °F
Forecast: 68 / 80 °F
Wind: 12 mph from Southwest

Location: Fort Lauderdale / Hollywood International Airport

Current Time: May 6, 2016 at 2:00:10 PM

Latest Report: May 6, 2016 at 12:53 PM


Visibility: 10 mi

Pressure: 29.88 "Hg

Humidity: 35%

Dew Point: 49 °F

Location of Fort LauderdaleLocation

Historic Weather in Fort Lauderdale — Graph

°F

Fort Lauderdale Temperature Yesterday

Maximum temperature yesterday: 82 °F (at 5:53 PM)
Minimum temperature yesterday: 65 °F (at 5:53 AM)
Average temperature yesterday: 74 °F

High & Low Weather Summary for the Past Weeks

 TemperatureHumidityPressure
High89 °F (Apr 23, 5:53 PM)94% (May 4, 4:53 AM)30.07 "Hg (May 4, 4:53 AM)
Low65 °F (May 5, 5:53 AM)34% (May 5, 2:53 PM)29.67 "Hg (May 4, 8:53 PM)
Average78 °F65%29.94 "Hg
* Reported Apr 21 12:53 PM — May 6 12:53 PM, Fort Lauderdale, Weather by CustomWeather, © 2016

Note: Actual official high and low records may vary slightly from our data, if they occured in-between our weather recording intervals... More about our weather records

Advertising

Fort Lauderdale Weather History for the Previous 24 Hours

Scroll right to see more
 ConditionsComfort  
Time TempWeatherWind HumidityBarometerVisibility
12:53 PM
Fri, May 6
79 °FPassing clouds.6 mph35%29.88 "Hg10 mi
11:53 AM78 °FPassing clouds.10 mph37%29.90 "Hg10 mi
10:53 AM76 °FPassing clouds.7 mph43%29.90 "Hg10 mi
9:53 AM74 °FPassing clouds.8 mph46%29.89 "Hg10 mi
8:53 AM72 °FPassing clouds.7 mph52%29.88 "Hg10 mi
7:53 AM69 °FPassing clouds.6 mph57%29.85 "Hg10 mi
6:53 AM65 °FPassing clouds.7 mph68%29.83 "Hg10 mi
5:53 AM66 °FPassing clouds.6 mph65%29.82 "Hg10 mi
4:53 AM67 °FPassing clouds.6 mph66%29.81 "Hg10 mi
3:53 AM68 °FPassing clouds.6 mph65%29.81 "Hg10 mi
2:53 AM70 °FClear.10 mph66%29.81 "Hg10 mi
1:53 AM73 °FPassing clouds.8 mph66%29.81 "Hg10 mi
12:53 AM74 °FMostly cloudy.7 mph60%29.82 "Hg10 mi
11:53 PM
Thu, May 5
74 °FPassing clouds.6 mph60%29.83 "Hg10 mi
10:53 PM75 °FPassing clouds.7 mph55%29.82 "Hg10 mi
9:53 PM76 °FPassing clouds.8 mph52%29.81 "Hg10 mi
8:53 PM78 °FPartly sunny.12 mph43%29.79 "Hg10 mi
7:53 PM80 °FScattered clouds.9 mph38%29.77 "Hg10 mi
6:53 PM81 °FScattered clouds.8 mph37%29.75 "Hg10 mi
5:53 PM82 °FScattered clouds.10 mph35%29.75 "Hg10 mi
4:53 PM81 °FPassing clouds.6 mph39%29.75 "Hg10 mi
3:53 PM81 °FSunny.9 mph38%29.77 "Hg10 mi
2:53 PM81 °FSunny.15 mph34%29.78 "Hg10 mi
Weather by CustomWeather, © 2016

See weather overviewHow to use our weather pages